Index of /20260507/WXO-DD/model_gdps/15km/00/174
Name Last modified Size Description
Parent Directory -
20260507T00Z_MSC_GDPS_AbsoluteVorticity_IsbL-0200_LatLon0.15_PT174H.grib2 2026-05-07 04:41 1.2M
20260507T00Z_MSC_GDPS_AbsoluteVorticity_IsbL-0250_LatLon0.15_PT174H.grib2 2026-05-07 04:41 1.3M
20260507T00Z_MSC_GDPS_AbsoluteVorticity_IsbL-0500_LatLon0.15_PT174H.grib2 2026-05-07 04:41 1.2M
20260507T00Z_MSC_GDPS_AbsoluteVorticity_IsbL-0700_LatLon0.15_PT174H.grib2 2026-05-07 04:41 1.3M
20260507T00Z_MSC_GDPS_AbsoluteVorticity_IsbL-0850_LatLon0.15_PT174H.grib2 2026-05-07 04:41 1.6M
20260507T00Z_MSC_GDPS_AirTemp-Max_AGL-2m_LatLon0.15_PT174H.grib2 2026-05-07 04:41 739K
20260507T00Z_MSC_GDPS_AirTemp-Min_AGL-2m_LatLon0.15_PT174H.grib2 2026-05-07 04:41 902K
20260507T00Z_MSC_GDPS_AirTemp_AGL-120m_LatLon0.15_PT174H.grib2 2026-05-07 04:41 901K
20260507T00Z_MSC_GDPS_AirTemp_AGL-2m_LatLon0.15_PT174H.grib2 2026-05-07 04:41 1.0M
20260507T00Z_MSC_GDPS_AirTemp_AGL-40m_LatLon0.15_PT174H.grib2 2026-05-07 04:41 921K
20260507T00Z_MSC_GDPS_AirTemp_AGL-80m_LatLon0.15_PT174H.grib2 2026-05-07 04:41 910K
20260507T00Z_MSC_GDPS_AirTemp_IsbL-0001_LatLon0.15_PT174H.grib2 2026-05-07 04:41 666K
20260507T00Z_MSC_GDPS_AirTemp_IsbL-0005_LatLon0.15_PT174H.grib2 2026-05-07 04:41 540K
20260507T00Z_MSC_GDPS_AirTemp_IsbL-0010_LatLon0.15_PT174H.grib2 2026-05-07 04:41 698K
20260507T00Z_MSC_GDPS_AirTemp_IsbL-0020_LatLon0.15_PT174H.grib2 2026-05-07 04:41 720K
20260507T00Z_MSC_GDPS_AirTemp_IsbL-0030_LatLon0.15_PT174H.grib2 2026-05-07 04:41 832K
20260507T00Z_MSC_GDPS_AirTemp_IsbL-0050_LatLon0.15_PT174H.grib2 2026-05-07 04:41 874K
20260507T00Z_MSC_GDPS_AirTemp_IsbL-0100_LatLon0.15_PT174H.grib2 2026-05-07 04:41 955K
20260507T00Z_MSC_GDPS_AirTemp_IsbL-0150_LatLon0.15_PT174H.grib2 2026-05-07 04:41 1.0M
20260507T00Z_MSC_GDPS_AirTemp_IsbL-0175_LatLon0.15_PT174H.grib2 2026-05-07 04:41 964K
20260507T00Z_MSC_GDPS_AirTemp_IsbL-0200_LatLon0.15_PT174H.grib2 2026-05-07 04:41 1.0M
20260507T00Z_MSC_GDPS_AirTemp_IsbL-0225_LatLon0.15_PT174H.grib2 2026-05-07 04:41 1.0M
20260507T00Z_MSC_GDPS_AirTemp_IsbL-0250_LatLon0.15_PT174H.grib2 2026-05-07 04:41 1.0M
20260507T00Z_MSC_GDPS_AirTemp_IsbL-0275_LatLon0.15_PT174H.grib2 2026-05-07 04:41 1.0M
20260507T00Z_MSC_GDPS_AirTemp_IsbL-0300_LatLon0.15_PT174H.grib2 2026-05-07 04:41 951K
20260507T00Z_MSC_GDPS_AirTemp_IsbL-0350_LatLon0.15_PT174H.grib2 2026-05-07 04:41 933K
20260507T00Z_MSC_GDPS_AirTemp_IsbL-0400_LatLon0.15_PT174H.grib2 2026-05-07 04:41 949K
20260507T00Z_MSC_GDPS_AirTemp_IsbL-0450_LatLon0.15_PT174H.grib2 2026-05-07 04:41 971K
20260507T00Z_MSC_GDPS_AirTemp_IsbL-0500_LatLon0.15_PT174H.grib2 2026-05-07 04:41 1.0M
20260507T00Z_MSC_GDPS_AirTemp_IsbL-0550_LatLon0.15_PT174H.grib2 2026-05-07 04:41 1.0M
20260507T00Z_MSC_GDPS_AirTemp_IsbL-0600_LatLon0.15_PT174H.grib2 2026-05-07 04:41 886K
20260507T00Z_MSC_GDPS_AirTemp_IsbL-0650_LatLon0.15_PT174H.grib2 2026-05-07 04:41 916K
20260507T00Z_MSC_GDPS_AirTemp_IsbL-0700_LatLon0.15_PT174H.grib2 2026-05-07 04:41 947K
20260507T00Z_MSC_GDPS_AirTemp_IsbL-0750_LatLon0.15_PT174H.grib2 2026-05-07 04:41 1.0M
20260507T00Z_MSC_GDPS_AirTemp_IsbL-0800_LatLon0.15_PT174H.grib2 2026-05-07 04:41 1.1M
20260507T00Z_MSC_GDPS_AirTemp_IsbL-0850_LatLon0.15_PT174H.grib2 2026-05-07 04:41 1.1M
20260507T00Z_MSC_GDPS_AirTemp_IsbL-0875_LatLon0.15_PT174H.grib2 2026-05-07 04:41 1.1M
20260507T00Z_MSC_GDPS_AirTemp_IsbL-0900_LatLon0.15_PT174H.grib2 2026-05-07 04:41 1.1M
20260507T00Z_MSC_GDPS_AirTemp_IsbL-0925_LatLon0.15_PT174H.grib2 2026-05-07 04:41 1.1M
20260507T00Z_MSC_GDPS_AirTemp_IsbL-0950_LatLon0.15_PT174H.grib2 2026-05-07 04:41 1.1M
20260507T00Z_MSC_GDPS_AirTemp_IsbL-0970_LatLon0.15_PT174H.grib2 2026-05-07 04:41 1.1M
20260507T00Z_MSC_GDPS_AirTemp_IsbL-0985_LatLon0.15_PT174H.grib2 2026-05-07 04:41 1.1M
20260507T00Z_MSC_GDPS_AirTemp_IsbL-1000_LatLon0.15_PT174H.grib2 2026-05-07 04:41 1.1M
20260507T00Z_MSC_GDPS_AirTemp_IsbL-1015_LatLon0.15_PT174H.grib2 2026-05-07 04:41 1.1M
20260507T00Z_MSC_GDPS_Albedo_Sfc_LatLon0.15_PT174H.grib2 2026-05-07 04:41 245K
20260507T00Z_MSC_GDPS_CAPE_Sfc_LatLon0.15_PT174H.grib2 2026-05-07 04:41 3.9M
20260507T00Z_MSC_GDPS_CIN_Sfc_LatLon0.15_PT174H.grib2 2026-05-07 04:41 2.9M
20260507T00Z_MSC_GDPS_CloudWater_EAtm_LatLon0.15_PT174H.grib2 2026-05-07 04:41 539K
20260507T00Z_MSC_GDPS_ConvectivePrecip-Accum_Sfc_LatLon0.15_PT174H.grib2 2026-05-07 04:41 3.6M
20260507T00Z_MSC_GDPS_DewPointDepression_AGL-2m_LatLon0.15_PT174H.grib2 2026-05-07 04:41 765K
20260507T00Z_MSC_GDPS_DewPointDepression_IsbL-0010_LatLon0.15_PT174H.grib2 2026-05-07 04:41 91K
20260507T00Z_MSC_GDPS_DewPointDepression_IsbL-0020_LatLon0.15_PT174H.grib2 2026-05-07 04:41 88K
20260507T00Z_MSC_GDPS_DewPointDepression_IsbL-0030_LatLon0.15_PT174H.grib2 2026-05-07 04:41 100K
20260507T00Z_MSC_GDPS_DewPointDepression_IsbL-0050_LatLon0.15_PT174H.grib2 2026-05-07 04:41 367K
20260507T00Z_MSC_GDPS_DewPointDepression_IsbL-0100_LatLon0.15_PT174H.grib2 2026-05-07 04:41 391K
20260507T00Z_MSC_GDPS_DewPointDepression_IsbL-0150_LatLon0.15_PT174H.grib2 2026-05-07 04:41 504K
20260507T00Z_MSC_GDPS_DewPointDepression_IsbL-0175_LatLon0.15_PT174H.grib2 2026-05-07 04:41 603K
20260507T00Z_MSC_GDPS_DewPointDepression_IsbL-0200_LatLon0.15_PT174H.grib2 2026-05-07 04:41 691K
20260507T00Z_MSC_GDPS_DewPointDepression_IsbL-0225_LatLon0.15_PT174H.grib2 2026-05-07 04:41 785K
20260507T00Z_MSC_GDPS_DewPointDepression_IsbL-0250_LatLon0.15_PT174H.grib2 2026-05-07 04:41 874K
20260507T00Z_MSC_GDPS_DewPointDepression_IsbL-0275_LatLon0.15_PT174H.grib2 2026-05-07 04:41 896K
20260507T00Z_MSC_GDPS_DewPointDepression_IsbL-0300_LatLon0.15_PT174H.grib2 2026-05-07 04:41 943K
20260507T00Z_MSC_GDPS_DewPointDepression_IsbL-0350_LatLon0.15_PT174H.grib2 2026-05-07 04:41 963K
20260507T00Z_MSC_GDPS_DewPointDepression_IsbL-0400_LatLon0.15_PT174H.grib2 2026-05-07 04:41 1.0M
20260507T00Z_MSC_GDPS_DewPointDepression_IsbL-0450_LatLon0.15_PT174H.grib2 2026-05-07 04:41 1.0M
20260507T00Z_MSC_GDPS_DewPointDepression_IsbL-0500_LatLon0.15_PT174H.grib2 2026-05-07 04:41 1.0M
20260507T00Z_MSC_GDPS_DewPointDepression_IsbL-0550_LatLon0.15_PT174H.grib2 2026-05-07 04:41 1.0M
20260507T00Z_MSC_GDPS_DewPointDepression_IsbL-0600_LatLon0.15_PT174H.grib2 2026-05-07 04:41 1.1M
20260507T00Z_MSC_GDPS_DewPointDepression_IsbL-0650_LatLon0.15_PT174H.grib2 2026-05-07 04:41 1.1M
20260507T00Z_MSC_GDPS_DewPointDepression_IsbL-0700_LatLon0.15_PT174H.grib2 2026-05-07 04:41 1.1M
20260507T00Z_MSC_GDPS_DewPointDepression_IsbL-0750_LatLon0.15_PT174H.grib2 2026-05-07 04:41 1.1M
20260507T00Z_MSC_GDPS_DewPointDepression_IsbL-0800_LatLon0.15_PT174H.grib2 2026-05-07 04:41 1.2M
20260507T00Z_MSC_GDPS_DewPointDepression_IsbL-0850_LatLon0.15_PT174H.grib2 2026-05-07 04:41 1.1M
20260507T00Z_MSC_GDPS_DewPointDepression_IsbL-0875_LatLon0.15_PT174H.grib2 2026-05-07 04:41 1.1M
20260507T00Z_MSC_GDPS_DewPointDepression_IsbL-0900_LatLon0.15_PT174H.grib2 2026-05-07 04:41 1.0M
20260507T00Z_MSC_GDPS_DewPointDepression_IsbL-0925_LatLon0.15_PT174H.grib2 2026-05-07 04:41 1.0M
20260507T00Z_MSC_GDPS_DewPointDepression_IsbL-0950_LatLon0.15_PT174H.grib2 2026-05-07 04:41 1.0M
20260507T00Z_MSC_GDPS_DewPointDepression_IsbL-0970_LatLon0.15_PT174H.grib2 2026-05-07 04:41 1.0M
20260507T00Z_MSC_GDPS_DewPointDepression_IsbL-0985_LatLon0.15_PT174H.grib2 2026-05-07 04:41 1.0M
20260507T00Z_MSC_GDPS_DewPointDepression_IsbL-1000_LatLon0.15_PT174H.grib2 2026-05-07 04:41 961K
20260507T00Z_MSC_GDPS_DewPointDepression_IsbL-1015_LatLon0.15_PT174H.grib2 2026-05-07 04:41 902K
20260507T00Z_MSC_GDPS_DewPoint_AGL-2m_LatLon0.15_PT174H.grib2 2026-05-07 04:41 602K
20260507T00Z_MSC_GDPS_DownwardLongwaveRadiationFlux-Accum_Sfc_LatLon0.15_PT174H.grib2 2026-05-07 04:41 647K
20260507T00Z_MSC_GDPS_DownwardShortwaveRadiationFlux-Accum_NTAtm_LatLon0.15_PT174H.grib2 2026-05-07 04:41 222K
20260507T00Z_MSC_GDPS_DownwardShortwaveRadiationFlux-Accum_Sfc_LatLon0.15_PT174H.grib2 2026-05-07 04:41 827K
20260507T00Z_MSC_GDPS_FreezingRain-Accum12h_Sfc_LatLon0.15_PT174H.grib2 2026-05-07 04:41 125K
20260507T00Z_MSC_GDPS_FreezingRain-Accum24h_Sfc_LatLon0.15_PT174H.grib2 2026-05-07 04:41 196K
20260507T00Z_MSC_GDPS_FreezingRain-Accum6h_Sfc_LatLon0.15_PT174H.grib2 2026-05-07 04:41 85K
20260507T00Z_MSC_GDPS_FreezingRain-Accum_Sfc_LatLon0.15_PT174H.grib2 2026-05-07 04:41 421K
20260507T00Z_MSC_GDPS_GeopotentialHeight_IsbL-0001_LatLon0.15_PT174H.grib2 2026-05-07 04:41 460K
20260507T00Z_MSC_GDPS_GeopotentialHeight_IsbL-0005_LatLon0.15_PT174H.grib2 2026-05-07 04:41 349K
20260507T00Z_MSC_GDPS_GeopotentialHeight_IsbL-0010_LatLon0.15_PT174H.grib2 2026-05-07 04:41 473K
20260507T00Z_MSC_GDPS_GeopotentialHeight_IsbL-0020_LatLon0.15_PT174H.grib2 2026-05-07 04:41 463K
20260507T00Z_MSC_GDPS_GeopotentialHeight_IsbL-0030_LatLon0.15_PT174H.grib2 2026-05-07 04:41 412K
20260507T00Z_MSC_GDPS_GeopotentialHeight_IsbL-0050_LatLon0.15_PT174H.grib2 2026-05-07 04:41 571K
20260507T00Z_MSC_GDPS_GeopotentialHeight_IsbL-0100_LatLon0.15_PT174H.grib2 2026-05-07 04:41 615K
20260507T00Z_MSC_GDPS_GeopotentialHeight_IsbL-0150_LatLon0.15_PT174H.grib2 2026-05-07 04:41 635K
20260507T00Z_MSC_GDPS_GeopotentialHeight_IsbL-0175_LatLon0.15_PT174H.grib2 2026-05-07 04:41 640K
20260507T00Z_MSC_GDPS_GeopotentialHeight_IsbL-0200_LatLon0.15_PT174H.grib2 2026-05-07 04:41 644K
20260507T00Z_MSC_GDPS_GeopotentialHeight_IsbL-0225_LatLon0.15_PT174H.grib2 2026-05-07 04:41 646K
20260507T00Z_MSC_GDPS_GeopotentialHeight_IsbL-0250_LatLon0.15_PT174H.grib2 2026-05-07 04:41 646K
20260507T00Z_MSC_GDPS_GeopotentialHeight_IsbL-0275_LatLon0.15_PT174H.grib2 2026-05-07 04:41 647K
20260507T00Z_MSC_GDPS_GeopotentialHeight_IsbL-0300_LatLon0.15_PT174H.grib2 2026-05-07 04:41 638K
20260507T00Z_MSC_GDPS_GeopotentialHeight_IsbL-0350_LatLon0.15_PT174H.grib2 2026-05-07 04:41 632K
20260507T00Z_MSC_GDPS_GeopotentialHeight_IsbL-0400_LatLon0.15_PT174H.grib2 2026-05-07 04:41 624K
20260507T00Z_MSC_GDPS_GeopotentialHeight_IsbL-0450_LatLon0.15_PT174H.grib2 2026-05-07 04:41 614K
20260507T00Z_MSC_GDPS_GeopotentialHeight_IsbL-0500_LatLon0.15_PT174H.grib2 2026-05-07 04:41 535K
20260507T00Z_MSC_GDPS_GeopotentialHeight_IsbL-0550_LatLon0.15_PT174H.grib2 2026-05-07 04:41 528K
20260507T00Z_MSC_GDPS_GeopotentialHeight_IsbL-0600_LatLon0.15_PT174H.grib2 2026-05-07 04:41 524K
20260507T00Z_MSC_GDPS_GeopotentialHeight_IsbL-0650_LatLon0.15_PT174H.grib2 2026-05-07 04:41 690K
20260507T00Z_MSC_GDPS_GeopotentialHeight_IsbL-0700_LatLon0.15_PT174H.grib2 2026-05-07 04:41 687K
20260507T00Z_MSC_GDPS_GeopotentialHeight_IsbL-0750_LatLon0.15_PT174H.grib2 2026-05-07 04:41 692K
20260507T00Z_MSC_GDPS_GeopotentialHeight_IsbL-0800_LatLon0.15_PT174H.grib2 2026-05-07 04:41 706K
20260507T00Z_MSC_GDPS_GeopotentialHeight_IsbL-0850_LatLon0.15_PT174H.grib2 2026-05-07 04:41 716K
20260507T00Z_MSC_GDPS_GeopotentialHeight_IsbL-0875_LatLon0.15_PT174H.grib2 2026-05-07 04:41 720K
20260507T00Z_MSC_GDPS_GeopotentialHeight_IsbL-0900_LatLon0.15_PT174H.grib2 2026-05-07 04:41 726K
20260507T00Z_MSC_GDPS_GeopotentialHeight_IsbL-0925_LatLon0.15_PT174H.grib2 2026-05-07 04:41 734K
20260507T00Z_MSC_GDPS_GeopotentialHeight_IsbL-0950_LatLon0.15_PT174H.grib2 2026-05-07 04:41 740K
20260507T00Z_MSC_GDPS_GeopotentialHeight_IsbL-0970_LatLon0.15_PT174H.grib2 2026-05-07 04:41 751K
20260507T00Z_MSC_GDPS_GeopotentialHeight_IsbL-0985_LatLon0.15_PT174H.grib2 2026-05-07 04:41 767K
20260507T00Z_MSC_GDPS_GeopotentialHeight_IsbL-1000_LatLon0.15_PT174H.grib2 2026-05-07 04:41 788K
20260507T00Z_MSC_GDPS_GeopotentialHeight_IsbL-1015_LatLon0.15_PT174H.grib2 2026-05-07 04:41 811K
20260507T00Z_MSC_GDPS_IcePellets-Accum12h_Sfc_LatLon0.15_PT174H.grib2 2026-05-07 04:41 48K
20260507T00Z_MSC_GDPS_IcePellets-Accum24h_Sfc_LatLon0.15_PT174H.grib2 2026-05-07 04:41 85K
20260507T00Z_MSC_GDPS_IcePellets-Accum6h_Sfc_LatLon0.15_PT174H.grib2 2026-05-07 04:41 31K
20260507T00Z_MSC_GDPS_IcePellets-Accum_Sfc_LatLon0.15_PT174H.grib2 2026-05-07 04:41 211K
20260507T00Z_MSC_GDPS_KIndex_Sfc_LatLon0.15_PT174H.grib2 2026-05-07 04:41 6.5M
20260507T00Z_MSC_GDPS_LatentHeatNetFlux_Sfc_LatLon0.15_PT174H.grib2 2026-05-07 04:41 718K
20260507T00Z_MSC_GDPS_LiftedIndex-MU-VT_IsbL-0500_LatLon0.15_PT174H.grib2 2026-05-07 04:41 5.4M
20260507T00Z_MSC_GDPS_NetLongwaveRadiationFlux-Accum_Sfc_LatLon0.15_PT174H.grib2 2026-05-07 04:41 1.1M
20260507T00Z_MSC_GDPS_NetShortwaveRadiationFlux-Accum_Sfc_LatLon0.15_PT174H.grib2 2026-05-07 04:41 825K
20260507T00Z_MSC_GDPS_O3MixingRatio_Sfc_LatLon0.15_PT174H.grib2 2026-05-07 04:56 1.9M
20260507T00Z_MSC_GDPS_O3_EAtm_LatLon0.15_PT174H.grib2 2026-05-07 04:56 2.4M
20260507T00Z_MSC_GDPS_PlanetaryBoundaryLayerHeight_Sfc_LatLon0.15_PT174H.grib2 2026-05-07 04:41 2.5M
20260507T00Z_MSC_GDPS_Precip-Accum12h_Sfc_LatLon0.15_PT174H.grib2 2026-05-07 04:41 4.0M
20260507T00Z_MSC_GDPS_Precip-Accum24h_Sfc_LatLon0.15_PT174H.grib2 2026-05-07 04:41 4.3M
20260507T00Z_MSC_GDPS_Precip-Accum6h_Sfc_LatLon0.15_PT174H.grib2 2026-05-07 04:41 3.9M
20260507T00Z_MSC_GDPS_Precip-Accum_Sfc_LatLon0.15_PT174H.grib2 2026-05-07 04:41 5.0M
20260507T00Z_MSC_GDPS_PrecipRate_Sfc_LatLon0.15_PT174H.grib2 2026-05-07 04:41 3.1M
20260507T00Z_MSC_GDPS_PrecipType-Instant_Sfc_LatLon0.15_PT174H.grib2 2026-05-07 04:41 1.5M
20260507T00Z_MSC_GDPS_Pressure_MSL_LatLon0.15_PT174H.grib2 2026-05-07 04:41 819K
20260507T00Z_MSC_GDPS_Pressure_Sfc_LatLon0.15_PT174H.grib2 2026-05-07 04:41 1.1M
20260507T00Z_MSC_GDPS_RadiativeTemp_Sfc_LatLon0.15_PT174H.grib2 2026-05-07 04:41 666K
20260507T00Z_MSC_GDPS_Rain-Accum12h_Sfc_LatLon0.15_PT174H.grib2 2026-05-07 04:41 2.7M
20260507T00Z_MSC_GDPS_Rain-Accum24h_Sfc_LatLon0.15_PT174H.grib2 2026-05-07 04:41 3.0M
20260507T00Z_MSC_GDPS_Rain-Accum6h_Sfc_LatLon0.15_PT174H.grib2 2026-05-07 04:41 2.5M
20260507T00Z_MSC_GDPS_Rain-Accum_Sfc_LatLon0.15_PT174H.grib2 2026-05-07 04:41 4.0M
20260507T00Z_MSC_GDPS_RelativeHumidity_AGL-2m_LatLon0.15_PT174H.grib2 2026-05-07 04:41 1.0M
20260507T00Z_MSC_GDPS_RelativeHumidity_IsbL-0010_LatLon0.15_PT174H.grib2 2026-05-07 04:41 153K
20260507T00Z_MSC_GDPS_RelativeHumidity_IsbL-0020_LatLon0.15_PT174H.grib2 2026-05-07 04:41 123K
20260507T00Z_MSC_GDPS_RelativeHumidity_IsbL-0030_LatLon0.15_PT174H.grib2 2026-05-07 04:41 191K
20260507T00Z_MSC_GDPS_RelativeHumidity_IsbL-0050_LatLon0.15_PT174H.grib2 2026-05-07 04:41 334K
20260507T00Z_MSC_GDPS_RelativeHumidity_IsbL-0100_LatLon0.15_PT174H.grib2 2026-05-07 04:41 493K
20260507T00Z_MSC_GDPS_RelativeHumidity_IsbL-0150_LatLon0.15_PT174H.grib2 2026-05-07 04:41 679K
20260507T00Z_MSC_GDPS_RelativeHumidity_IsbL-0175_LatLon0.15_PT174H.grib2 2026-05-07 04:41 814K
20260507T00Z_MSC_GDPS_RelativeHumidity_IsbL-0200_LatLon0.15_PT174H.grib2 2026-05-07 04:41 723K
20260507T00Z_MSC_GDPS_RelativeHumidity_IsbL-0225_LatLon0.15_PT174H.grib2 2026-05-07 04:41 805K
20260507T00Z_MSC_GDPS_RelativeHumidity_IsbL-0250_LatLon0.15_PT174H.grib2 2026-05-07 04:41 877K
20260507T00Z_MSC_GDPS_RelativeHumidity_IsbL-0275_LatLon0.15_PT174H.grib2 2026-05-07 04:41 895K
20260507T00Z_MSC_GDPS_RelativeHumidity_IsbL-0300_LatLon0.15_PT174H.grib2 2026-05-07 04:41 939K
20260507T00Z_MSC_GDPS_RelativeHumidity_IsbL-0350_LatLon0.15_PT174H.grib2 2026-05-07 04:41 952K
20260507T00Z_MSC_GDPS_RelativeHumidity_IsbL-0400_LatLon0.15_PT174H.grib2 2026-05-07 04:41 971K
20260507T00Z_MSC_GDPS_RelativeHumidity_IsbL-0450_LatLon0.15_PT174H.grib2 2026-05-07 04:41 1.0M
20260507T00Z_MSC_GDPS_RelativeHumidity_IsbL-0500_LatLon0.15_PT174H.grib2 2026-05-07 04:41 1.0M
20260507T00Z_MSC_GDPS_RelativeHumidity_IsbL-0550_LatLon0.15_PT174H.grib2 2026-05-07 04:41 1.0M
20260507T00Z_MSC_GDPS_RelativeHumidity_IsbL-0600_LatLon0.15_PT174H.grib2 2026-05-07 04:41 1.0M
20260507T00Z_MSC_GDPS_RelativeHumidity_IsbL-0650_LatLon0.15_PT174H.grib2 2026-05-07 04:41 1.1M
20260507T00Z_MSC_GDPS_RelativeHumidity_IsbL-0700_LatLon0.15_PT174H.grib2 2026-05-07 04:41 1.1M
20260507T00Z_MSC_GDPS_RelativeHumidity_IsbL-0750_LatLon0.15_PT174H.grib2 2026-05-07 04:41 1.1M
20260507T00Z_MSC_GDPS_RelativeHumidity_IsbL-0800_LatLon0.15_PT174H.grib2 2026-05-07 04:41 1.2M
20260507T00Z_MSC_GDPS_RelativeHumidity_IsbL-0850_LatLon0.15_PT174H.grib2 2026-05-07 04:41 1.2M
20260507T00Z_MSC_GDPS_RelativeHumidity_IsbL-0875_LatLon0.15_PT174H.grib2 2026-05-07 04:41 1.2M
20260507T00Z_MSC_GDPS_RelativeHumidity_IsbL-0900_LatLon0.15_PT174H.grib2 2026-05-07 04:41 1.2M
20260507T00Z_MSC_GDPS_RelativeHumidity_IsbL-0925_LatLon0.15_PT174H.grib2 2026-05-07 04:41 1.2M
20260507T00Z_MSC_GDPS_RelativeHumidity_IsbL-0950_LatLon0.15_PT174H.grib2 2026-05-07 04:41 1.2M
20260507T00Z_MSC_GDPS_RelativeHumidity_IsbL-0970_LatLon0.15_PT174H.grib2 2026-05-07 04:41 1.2M
20260507T00Z_MSC_GDPS_RelativeHumidity_IsbL-0985_LatLon0.15_PT174H.grib2 2026-05-07 04:41 1.1M
20260507T00Z_MSC_GDPS_RelativeHumidity_IsbL-1000_LatLon0.15_PT174H.grib2 2026-05-07 04:41 1.1M
20260507T00Z_MSC_GDPS_RelativeHumidity_IsbL-1015_LatLon0.15_PT174H.grib2 2026-05-07 04:41 1.0M
20260507T00Z_MSC_GDPS_RelativeVorticity_IsbL-0200_LatLon0.15_PT174H.grib2 2026-05-07 04:41 1.2M
20260507T00Z_MSC_GDPS_RelativeVorticity_IsbL-0250_LatLon0.15_PT174H.grib2 2026-05-07 04:41 1.3M
20260507T00Z_MSC_GDPS_RelativeVorticity_IsbL-0500_LatLon0.15_PT174H.grib2 2026-05-07 04:41 1.2M
20260507T00Z_MSC_GDPS_RelativeVorticity_IsbL-0700_LatLon0.15_PT174H.grib2 2026-05-07 04:41 1.3M
20260507T00Z_MSC_GDPS_RelativeVorticity_IsbL-0850_LatLon0.15_PT174H.grib2 2026-05-07 04:41 1.6M
20260507T00Z_MSC_GDPS_Runoff-Accum_Sfc_LatLon0.15_PT174H.grib2 2026-05-07 04:41 122K
20260507T00Z_MSC_GDPS_SensibleHeatNetFlux_Sfc_LatLon0.15_PT174H.grib2 2026-05-07 04:41 652K
20260507T00Z_MSC_GDPS_ShowalterIndex_IsbL-0500_LatLon0.15_PT174H.grib2 2026-05-07 04:41 6.2M
20260507T00Z_MSC_GDPS_Snow-Accum12h_Sfc_LatLon0.15_PT174H.grib2 2026-05-07 04:41 1.6M
20260507T00Z_MSC_GDPS_Snow-Accum24h_Sfc_LatLon0.15_PT174H.grib2 2026-05-07 04:41 1.7M
20260507T00Z_MSC_GDPS_Snow-Accum6h_Sfc_LatLon0.15_PT174H.grib2 2026-05-07 04:41 1.5M
20260507T00Z_MSC_GDPS_Snow-Accum_Sfc_LatLon0.15_PT174H.grib2 2026-05-07 04:41 2.1M
20260507T00Z_MSC_GDPS_SnowDensity_Sfc_LatLon0.15_PT174H.grib2 2026-05-07 04:41 259K
20260507T00Z_MSC_GDPS_SnowDepth_Sfc_LatLon0.15_PT174H.grib2 2026-05-07 04:41 1.7M
20260507T00Z_MSC_GDPS_SoilTemp_DBS-0to10cm_LatLon0.15_PT174H.grib2 2026-05-07 04:41 513K
20260507T00Z_MSC_GDPS_SoilTemp_Sfc_LatLon0.15_PT174H.grib2 2026-05-07 04:41 587K
20260507T00Z_MSC_GDPS_SoilVolumetricIceContent_Sfc_LatLon0.15_PT174H.grib2 2026-05-07 04:41 171K
20260507T00Z_MSC_GDPS_SoilVolumetricWaterContent_DBS-0to10cm_LatLon0.15_PT174H.grib2 2026-05-07 04:41 604K
20260507T00Z_MSC_GDPS_SoilVolumetricWaterContent_DBS-0to1cm_LatLon0.15_PT174H.grib2 2026-05-07 04:41 646K
20260507T00Z_MSC_GDPS_SpecificHumidity_AGL-120m_LatLon0.15_PT174H.grib2 2026-05-07 04:41 1.1M
20260507T00Z_MSC_GDPS_SpecificHumidity_AGL-2m_LatLon0.15_PT174H.grib2 2026-05-07 04:41 1.2M
20260507T00Z_MSC_GDPS_SpecificHumidity_AGL-40m_LatLon0.15_PT174H.grib2 2026-05-07 04:41 1.1M
20260507T00Z_MSC_GDPS_SpecificHumidity_AGL-80m_LatLon0.15_PT174H.grib2 2026-05-07 04:41 1.1M
20260507T00Z_MSC_GDPS_SpecificHumidity_IsbL-0001_LatLon0.15_PT174H.grib2 2026-05-07 04:41 1.2M
20260507T00Z_MSC_GDPS_SpecificHumidity_IsbL-0005_LatLon0.15_PT174H.grib2 2026-05-07 04:41 1.1M
20260507T00Z_MSC_GDPS_SpecificHumidity_IsbL-0010_LatLon0.15_PT174H.grib2 2026-05-07 04:41 1.2M
20260507T00Z_MSC_GDPS_SpecificHumidity_IsbL-0020_LatLon0.15_PT174H.grib2 2026-05-07 04:41 1.2M
20260507T00Z_MSC_GDPS_SpecificHumidity_IsbL-0030_LatLon0.15_PT174H.grib2 2026-05-07 04:41 1.2M
20260507T00Z_MSC_GDPS_SpecificHumidity_IsbL-0050_LatLon0.15_PT174H.grib2 2026-05-07 04:41 1.5M
20260507T00Z_MSC_GDPS_SpecificHumidity_IsbL-0100_LatLon0.15_PT174H.grib2 2026-05-07 04:41 1.5M
20260507T00Z_MSC_GDPS_SpecificHumidity_IsbL-0150_LatLon0.15_PT174H.grib2 2026-05-07 04:41 1.3M
20260507T00Z_MSC_GDPS_SpecificHumidity_IsbL-0175_LatLon0.15_PT174H.grib2 2026-05-07 04:41 1.3M
20260507T00Z_MSC_GDPS_SpecificHumidity_IsbL-0200_LatLon0.15_PT174H.grib2 2026-05-07 04:41 1.3M
20260507T00Z_MSC_GDPS_SpecificHumidity_IsbL-0225_LatLon0.15_PT174H.grib2 2026-05-07 04:41 1.3M
20260507T00Z_MSC_GDPS_SpecificHumidity_IsbL-0250_LatLon0.15_PT174H.grib2 2026-05-07 04:41 1.2M
20260507T00Z_MSC_GDPS_SpecificHumidity_IsbL-0275_LatLon0.15_PT174H.grib2 2026-05-07 04:41 1.4M
20260507T00Z_MSC_GDPS_SpecificHumidity_IsbL-0300_LatLon0.15_PT174H.grib2 2026-05-07 04:41 1.3M
20260507T00Z_MSC_GDPS_SpecificHumidity_IsbL-0350_LatLon0.15_PT174H.grib2 2026-05-07 04:41 1.3M
20260507T00Z_MSC_GDPS_SpecificHumidity_IsbL-0400_LatLon0.15_PT174H.grib2 2026-05-07 04:41 1.4M
20260507T00Z_MSC_GDPS_SpecificHumidity_IsbL-0450_LatLon0.15_PT174H.grib2 2026-05-07 04:41 1.3M
20260507T00Z_MSC_GDPS_SpecificHumidity_IsbL-0500_LatLon0.15_PT174H.grib2 2026-05-07 04:41 1.5M
20260507T00Z_MSC_GDPS_SpecificHumidity_IsbL-0550_LatLon0.15_PT174H.grib2 2026-05-07 04:41 1.6M
20260507T00Z_MSC_GDPS_SpecificHumidity_IsbL-0600_LatLon0.15_PT174H.grib2 2026-05-07 04:41 1.5M
20260507T00Z_MSC_GDPS_SpecificHumidity_IsbL-0650_LatLon0.15_PT174H.grib2 2026-05-07 04:41 1.6M
20260507T00Z_MSC_GDPS_SpecificHumidity_IsbL-0700_LatLon0.15_PT174H.grib2 2026-05-07 04:41 1.7M
20260507T00Z_MSC_GDPS_SpecificHumidity_IsbL-0750_LatLon0.15_PT174H.grib2 2026-05-07 04:41 1.8M
20260507T00Z_MSC_GDPS_SpecificHumidity_IsbL-0800_LatLon0.15_PT174H.grib2 2026-05-07 04:41 1.9M
20260507T00Z_MSC_GDPS_SpecificHumidity_IsbL-0850_LatLon0.15_PT174H.grib2 2026-05-07 04:41 2.0M
20260507T00Z_MSC_GDPS_SpecificHumidity_IsbL-0875_LatLon0.15_PT174H.grib2 2026-05-07 04:41 2.0M
20260507T00Z_MSC_GDPS_SpecificHumidity_IsbL-0900_LatLon0.15_PT174H.grib2 2026-05-07 04:41 1.9M
20260507T00Z_MSC_GDPS_SpecificHumidity_IsbL-0925_LatLon0.15_PT174H.grib2 2026-05-07 04:41 1.6M
20260507T00Z_MSC_GDPS_SpecificHumidity_IsbL-0950_LatLon0.15_PT174H.grib2 2026-05-07 04:41 1.6M
20260507T00Z_MSC_GDPS_SpecificHumidity_IsbL-0970_LatLon0.15_PT174H.grib2 2026-05-07 04:41 1.6M
20260507T00Z_MSC_GDPS_SpecificHumidity_IsbL-0985_LatLon0.15_PT174H.grib2 2026-05-07 04:41 1.6M
20260507T00Z_MSC_GDPS_SpecificHumidity_IsbL-1000_LatLon0.15_PT174H.grib2 2026-05-07 04:41 1.5M
20260507T00Z_MSC_GDPS_SpecificHumidity_IsbL-1015_LatLon0.15_PT174H.grib2 2026-05-07 04:41 1.5M
20260507T00Z_MSC_GDPS_SpecificHumidity_Sfc_LatLon0.15_PT174H.grib2 2026-05-07 04:41 688K
20260507T00Z_MSC_GDPS_Thickness_IsbL-0850to0700_LatLon0.15_PT174H.grib2 2026-05-07 04:41 465K
20260507T00Z_MSC_GDPS_Thickness_IsbL-1000to0500_LatLon0.15_PT174H.grib2 2026-05-07 04:41 367K
20260507T00Z_MSC_GDPS_Thickness_IsbL-1000to0850_LatLon0.15_PT174H.grib2 2026-05-07 04:41 485K
20260507T00Z_MSC_GDPS_TotalCloudCover_Sfc_LatLon0.15_PT174H.grib2 2026-05-07 04:41 850K
20260507T00Z_MSC_GDPS_TotalTotalsIndex_Sfc_LatLon0.15_PT174H.grib2 2026-05-07 04:41 6.2M
20260507T00Z_MSC_GDPS_UVIndex-ClearSky_Sfc_LatLon0.15_PT174H.grib2 2026-05-07 04:56 1.1M
20260507T00Z_MSC_GDPS_UVIndex_Sfc_LatLon0.15_PT174H.grib2 2026-05-07 04:56 1.5M
20260507T00Z_MSC_GDPS_UpwardLongwaveRadiationFlux_NTAtm_LatLon0.15_PT174H.grib2 2026-05-07 04:41 850K
20260507T00Z_MSC_GDPS_VerticalVelocity_IsbL-0200_LatLon0.15_PT174H.grib2 2026-05-07 04:41 1.2M
20260507T00Z_MSC_GDPS_VerticalVelocity_IsbL-0250_LatLon0.15_PT174H.grib2 2026-05-07 04:41 1.0M
20260507T00Z_MSC_GDPS_VerticalVelocity_IsbL-0500_LatLon0.15_PT174H.grib2 2026-05-07 04:41 1.3M
20260507T00Z_MSC_GDPS_VerticalVelocity_IsbL-0600_LatLon0.15_PT174H.grib2 2026-05-07 04:41 1.3M
20260507T00Z_MSC_GDPS_VerticalVelocity_IsbL-0700_LatLon0.15_PT174H.grib2 2026-05-07 04:41 1.1M
20260507T00Z_MSC_GDPS_VerticalVelocity_IsbL-0850_LatLon0.15_PT174H.grib2 2026-05-07 04:41 1.3M
20260507T00Z_MSC_GDPS_WindChill_Sfc_LatLon0.15_PT174H.grib2 2026-05-07 04:41 5.3M
20260507T00Z_MSC_GDPS_WindDir_AGL-10m_LatLon0.15_PT174H.grib2 2026-05-07 04:41 1.3M
20260507T00Z_MSC_GDPS_WindDir_AGL-120m_LatLon0.15_PT174H.grib2 2026-05-07 04:41 1.3M
20260507T00Z_MSC_GDPS_WindDir_AGL-40m_LatLon0.15_PT174H.grib2 2026-05-07 04:41 1.4M
20260507T00Z_MSC_GDPS_WindDir_AGL-80m_LatLon0.15_PT174H.grib2 2026-05-07 04:41 1.3M
20260507T00Z_MSC_GDPS_WindDir_IsbL-0001_LatLon0.15_PT174H.grib2 2026-05-07 04:41 636K
20260507T00Z_MSC_GDPS_WindDir_IsbL-0005_LatLon0.15_PT174H.grib2 2026-05-07 04:41 789K
20260507T00Z_MSC_GDPS_WindDir_IsbL-0010_LatLon0.15_PT174H.grib2 2026-05-07 04:41 834K
20260507T00Z_MSC_GDPS_WindDir_IsbL-0020_LatLon0.15_PT174H.grib2 2026-05-07 04:41 922K
20260507T00Z_MSC_GDPS_WindDir_IsbL-0030_LatLon0.15_PT174H.grib2 2026-05-07 04:41 945K
20260507T00Z_MSC_GDPS_WindDir_IsbL-0050_LatLon0.15_PT174H.grib2 2026-05-07 04:41 967K
20260507T00Z_MSC_GDPS_WindDir_IsbL-0100_LatLon0.15_PT174H.grib2 2026-05-07 04:41 1.0M
20260507T00Z_MSC_GDPS_WindDir_IsbL-0150_LatLon0.15_PT174H.grib2 2026-05-07 04:41 1.0M
20260507T00Z_MSC_GDPS_WindDir_IsbL-0175_LatLon0.15_PT174H.grib2 2026-05-07 04:41 1.1M
20260507T00Z_MSC_GDPS_WindDir_IsbL-0200_LatLon0.15_PT174H.grib2 2026-05-07 04:41 1.1M
20260507T00Z_MSC_GDPS_WindDir_IsbL-0225_LatLon0.15_PT174H.grib2 2026-05-07 04:41 1.1M
20260507T00Z_MSC_GDPS_WindDir_IsbL-0250_LatLon0.15_PT174H.grib2 2026-05-07 04:41 1.1M
20260507T00Z_MSC_GDPS_WindDir_IsbL-0275_LatLon0.15_PT174H.grib2 2026-05-07 04:41 1.2M
20260507T00Z_MSC_GDPS_WindDir_IsbL-0300_LatLon0.15_PT174H.grib2 2026-05-07 04:41 1.2M
20260507T00Z_MSC_GDPS_WindDir_IsbL-0350_LatLon0.15_PT174H.grib2 2026-05-07 04:41 1.2M
20260507T00Z_MSC_GDPS_WindDir_IsbL-0400_LatLon0.15_PT174H.grib2 2026-05-07 04:41 1.3M
20260507T00Z_MSC_GDPS_WindDir_IsbL-0450_LatLon0.15_PT174H.grib2 2026-05-07 04:41 1.3M
20260507T00Z_MSC_GDPS_WindDir_IsbL-0500_LatLon0.15_PT174H.grib2 2026-05-07 04:41 1.4M
20260507T00Z_MSC_GDPS_WindDir_IsbL-0550_LatLon0.15_PT174H.grib2 2026-05-07 04:41 1.4M
20260507T00Z_MSC_GDPS_WindDir_IsbL-0600_LatLon0.15_PT174H.grib2 2026-05-07 04:41 1.4M
20260507T00Z_MSC_GDPS_WindDir_IsbL-0650_LatLon0.15_PT174H.grib2 2026-05-07 04:41 1.5M
20260507T00Z_MSC_GDPS_WindDir_IsbL-0700_LatLon0.15_PT174H.grib2 2026-05-07 04:41 1.6M
20260507T00Z_MSC_GDPS_WindDir_IsbL-0750_LatLon0.15_PT174H.grib2 2026-05-07 04:41 1.7M
20260507T00Z_MSC_GDPS_WindDir_IsbL-0800_LatLon0.15_PT174H.grib2 2026-05-07 04:41 1.8M
20260507T00Z_MSC_GDPS_WindDir_IsbL-0850_LatLon0.15_PT174H.grib2 2026-05-07 04:41 1.9M
20260507T00Z_MSC_GDPS_WindDir_IsbL-0875_LatLon0.15_PT174H.grib2 2026-05-07 04:41 1.9M
20260507T00Z_MSC_GDPS_WindDir_IsbL-0900_LatLon0.15_PT174H.grib2 2026-05-07 04:41 1.9M
20260507T00Z_MSC_GDPS_WindDir_IsbL-0925_LatLon0.15_PT174H.grib2 2026-05-07 04:41 1.9M
20260507T00Z_MSC_GDPS_WindDir_IsbL-0950_LatLon0.15_PT174H.grib2 2026-05-07 04:41 1.9M
20260507T00Z_MSC_GDPS_WindDir_IsbL-0970_LatLon0.15_PT174H.grib2 2026-05-07 04:41 2.0M
20260507T00Z_MSC_GDPS_WindDir_IsbL-0985_LatLon0.15_PT174H.grib2 2026-05-07 04:41 2.0M
20260507T00Z_MSC_GDPS_WindDir_IsbL-1000_LatLon0.15_PT174H.grib2 2026-05-07 04:41 2.0M
20260507T00Z_MSC_GDPS_WindDir_IsbL-1015_LatLon0.15_PT174H.grib2 2026-05-07 04:41 2.0M
20260507T00Z_MSC_GDPS_WindGust-Max_AGL-10m_LatLon0.15_PT174H.grib2 2026-05-07 04:41 2.2M
20260507T00Z_MSC_GDPS_WindGust-Min_AGL-10m_LatLon0.15_PT174H.grib2 2026-05-07 04:41 2.1M
20260507T00Z_MSC_GDPS_WindGust_AGL-10m_LatLon0.15_PT174H.grib2 2026-05-07 04:41 2.1M
20260507T00Z_MSC_GDPS_WindSpeed_AGL-10m_LatLon0.15_PT174H.grib2 2026-05-07 04:41 1.1M
20260507T00Z_MSC_GDPS_WindSpeed_AGL-120m_LatLon0.15_PT174H.grib2 2026-05-07 04:41 1.2M
20260507T00Z_MSC_GDPS_WindSpeed_AGL-40m_LatLon0.15_PT174H.grib2 2026-05-07 04:41 1.2M
20260507T00Z_MSC_GDPS_WindSpeed_AGL-80m_LatLon0.15_PT174H.grib2 2026-05-07 04:41 1.2M
20260507T00Z_MSC_GDPS_WindSpeed_IsbL-0001_LatLon0.15_PT174H.grib2 2026-05-07 04:41 508K
20260507T00Z_MSC_GDPS_WindSpeed_IsbL-0005_LatLon0.15_PT174H.grib2 2026-05-07 04:41 695K
20260507T00Z_MSC_GDPS_WindSpeed_IsbL-0010_LatLon0.15_PT174H.grib2 2026-05-07 04:41 626K
20260507T00Z_MSC_GDPS_WindSpeed_IsbL-0020_LatLon0.15_PT174H.grib2 2026-05-07 04:41 659K
20260507T00Z_MSC_GDPS_WindSpeed_IsbL-0030_LatLon0.15_PT174H.grib2 2026-05-07 04:41 665K
20260507T00Z_MSC_GDPS_WindSpeed_IsbL-0050_LatLon0.15_PT174H.grib2 2026-05-07 04:41 886K
20260507T00Z_MSC_GDPS_WindSpeed_IsbL-0100_LatLon0.15_PT174H.grib2 2026-05-07 04:41 1.1M
20260507T00Z_MSC_GDPS_WindSpeed_IsbL-0150_LatLon0.15_PT174H.grib2 2026-05-07 04:41 1.0M
20260507T00Z_MSC_GDPS_WindSpeed_IsbL-0175_LatLon0.15_PT174H.grib2 2026-05-07 04:41 1.0M
20260507T00Z_MSC_GDPS_WindSpeed_IsbL-0200_LatLon0.15_PT174H.grib2 2026-05-07 04:41 1.1M
20260507T00Z_MSC_GDPS_WindSpeed_IsbL-0225_LatLon0.15_PT174H.grib2 2026-05-07 04:41 1.1M
20260507T00Z_MSC_GDPS_WindSpeed_IsbL-0250_LatLon0.15_PT174H.grib2 2026-05-07 04:41 1.1M
20260507T00Z_MSC_GDPS_WindSpeed_IsbL-0275_LatLon0.15_PT174H.grib2 2026-05-07 04:41 1.1M
20260507T00Z_MSC_GDPS_WindSpeed_IsbL-0300_LatLon0.15_PT174H.grib2 2026-05-07 04:41 1.1M
20260507T00Z_MSC_GDPS_WindSpeed_IsbL-0350_LatLon0.15_PT174H.grib2 2026-05-07 04:41 1.1M
20260507T00Z_MSC_GDPS_WindSpeed_IsbL-0400_LatLon0.15_PT174H.grib2 2026-05-07 04:41 1.1M
20260507T00Z_MSC_GDPS_WindSpeed_IsbL-0450_LatLon0.15_PT174H.grib2 2026-05-07 04:41 1.1M
20260507T00Z_MSC_GDPS_WindSpeed_IsbL-0500_LatLon0.15_PT174H.grib2 2026-05-07 04:41 1.1M
20260507T00Z_MSC_GDPS_WindSpeed_IsbL-0550_LatLon0.15_PT174H.grib2 2026-05-07 04:41 1.1M
20260507T00Z_MSC_GDPS_WindSpeed_IsbL-0600_LatLon0.15_PT174H.grib2 2026-05-07 04:41 1.1M
20260507T00Z_MSC_GDPS_WindSpeed_IsbL-0650_LatLon0.15_PT174H.grib2 2026-05-07 04:41 1.4M
20260507T00Z_MSC_GDPS_WindSpeed_IsbL-0700_LatLon0.15_PT174H.grib2 2026-05-07 04:41 1.5M
20260507T00Z_MSC_GDPS_WindSpeed_IsbL-0750_LatLon0.15_PT174H.grib2 2026-05-07 04:41 1.5M
20260507T00Z_MSC_GDPS_WindSpeed_IsbL-0800_LatLon0.15_PT174H.grib2 2026-05-07 04:41 1.6M
20260507T00Z_MSC_GDPS_WindSpeed_IsbL-0850_LatLon0.15_PT174H.grib2 2026-05-07 04:41 1.7M
20260507T00Z_MSC_GDPS_WindSpeed_IsbL-0875_LatLon0.15_PT174H.grib2 2026-05-07 04:41 1.8M
20260507T00Z_MSC_GDPS_WindSpeed_IsbL-0900_LatLon0.15_PT174H.grib2 2026-05-07 04:41 1.8M
20260507T00Z_MSC_GDPS_WindSpeed_IsbL-0925_LatLon0.15_PT174H.grib2 2026-05-07 04:41 1.8M
20260507T00Z_MSC_GDPS_WindSpeed_IsbL-0950_LatLon0.15_PT174H.grib2 2026-05-07 04:41 1.8M
20260507T00Z_MSC_GDPS_WindSpeed_IsbL-0970_LatLon0.15_PT174H.grib2 2026-05-07 04:41 1.8M
20260507T00Z_MSC_GDPS_WindSpeed_IsbL-0985_LatLon0.15_PT174H.grib2 2026-05-07 04:41 1.9M
20260507T00Z_MSC_GDPS_WindSpeed_IsbL-1000_LatLon0.15_PT174H.grib2 2026-05-07 04:41 1.8M
20260507T00Z_MSC_GDPS_WindSpeed_IsbL-1015_LatLon0.15_PT174H.grib2 2026-05-07 04:41 1.8M
20260507T00Z_MSC_GDPS_WindU_AGL-10m_LatLon0.15_PT174H.grib2 2026-05-07 04:41 1.3M
20260507T00Z_MSC_GDPS_WindU_AGL-120m_LatLon0.15_PT174H.grib2 2026-05-07 04:41 1.0M
20260507T00Z_MSC_GDPS_WindU_AGL-40m_LatLon0.15_PT174H.grib2 2026-05-07 04:41 1.0M
20260507T00Z_MSC_GDPS_WindU_AGL-80m_LatLon0.15_PT174H.grib2 2026-05-07 04:41 1.0M
20260507T00Z_MSC_GDPS_WindU_IsbL-0001_LatLon0.15_PT174H.grib2 2026-05-07 04:41 603K
20260507T00Z_MSC_GDPS_WindU_IsbL-0005_LatLon0.15_PT174H.grib2 2026-05-07 04:41 694K
20260507T00Z_MSC_GDPS_WindU_IsbL-0010_LatLon0.15_PT174H.grib2 2026-05-07 04:41 701K
20260507T00Z_MSC_GDPS_WindU_IsbL-0020_LatLon0.15_PT174H.grib2 2026-05-07 04:41 727K
20260507T00Z_MSC_GDPS_WindU_IsbL-0030_LatLon0.15_PT174H.grib2 2026-05-07 04:41 733K
20260507T00Z_MSC_GDPS_WindU_IsbL-0050_LatLon0.15_PT174H.grib2 2026-05-07 04:41 755K
20260507T00Z_MSC_GDPS_WindU_IsbL-0100_LatLon0.15_PT174H.grib2 2026-05-07 04:41 916K
20260507T00Z_MSC_GDPS_WindU_IsbL-0150_LatLon0.15_PT174H.grib2 2026-05-07 04:41 1.0M
20260507T00Z_MSC_GDPS_WindU_IsbL-0175_LatLon0.15_PT174H.grib2 2026-05-07 04:41 1.0M
20260507T00Z_MSC_GDPS_WindU_IsbL-0200_LatLon0.15_PT174H.grib2 2026-05-07 04:41 845K
20260507T00Z_MSC_GDPS_WindU_IsbL-0225_LatLon0.15_PT174H.grib2 2026-05-07 04:41 858K
20260507T00Z_MSC_GDPS_WindU_IsbL-0250_LatLon0.15_PT174H.grib2 2026-05-07 04:41 859K
20260507T00Z_MSC_GDPS_WindU_IsbL-0275_LatLon0.15_PT174H.grib2 2026-05-07 04:41 886K
20260507T00Z_MSC_GDPS_WindU_IsbL-0300_LatLon0.15_PT174H.grib2 2026-05-07 04:41 878K
20260507T00Z_MSC_GDPS_WindU_IsbL-0350_LatLon0.15_PT174H.grib2 2026-05-07 04:41 894K
20260507T00Z_MSC_GDPS_WindU_IsbL-0400_LatLon0.15_PT174H.grib2 2026-05-07 04:41 893K
20260507T00Z_MSC_GDPS_WindU_IsbL-0450_LatLon0.15_PT174H.grib2 2026-05-07 04:41 1.1M
20260507T00Z_MSC_GDPS_WindU_IsbL-0500_LatLon0.15_PT174H.grib2 2026-05-07 04:41 1.1M
20260507T00Z_MSC_GDPS_WindU_IsbL-0550_LatLon0.15_PT174H.grib2 2026-05-07 04:41 1.1M
20260507T00Z_MSC_GDPS_WindU_IsbL-0600_LatLon0.15_PT174H.grib2 2026-05-07 04:41 1.1M
20260507T00Z_MSC_GDPS_WindU_IsbL-0650_LatLon0.15_PT174H.grib2 2026-05-07 04:41 1.2M
20260507T00Z_MSC_GDPS_WindU_IsbL-0700_LatLon0.15_PT174H.grib2 2026-05-07 04:41 1.2M
20260507T00Z_MSC_GDPS_WindU_IsbL-0750_LatLon0.15_PT174H.grib2 2026-05-07 04:41 1.3M
20260507T00Z_MSC_GDPS_WindU_IsbL-0800_LatLon0.15_PT174H.grib2 2026-05-07 04:41 1.3M
20260507T00Z_MSC_GDPS_WindU_IsbL-0850_LatLon0.15_PT174H.grib2 2026-05-07 04:41 1.4M
20260507T00Z_MSC_GDPS_WindU_IsbL-0875_LatLon0.15_PT174H.grib2 2026-05-07 04:41 1.4M
20260507T00Z_MSC_GDPS_WindU_IsbL-0900_LatLon0.15_PT174H.grib2 2026-05-07 04:41 1.4M
20260507T00Z_MSC_GDPS_WindU_IsbL-0925_LatLon0.15_PT174H.grib2 2026-05-07 04:41 1.4M
20260507T00Z_MSC_GDPS_WindU_IsbL-0950_LatLon0.15_PT174H.grib2 2026-05-07 04:41 1.4M
20260507T00Z_MSC_GDPS_WindU_IsbL-0970_LatLon0.15_PT174H.grib2 2026-05-07 04:41 1.4M
20260507T00Z_MSC_GDPS_WindU_IsbL-0985_LatLon0.15_PT174H.grib2 2026-05-07 04:41 1.4M
20260507T00Z_MSC_GDPS_WindU_IsbL-1000_LatLon0.15_PT174H.grib2 2026-05-07 04:41 1.4M
20260507T00Z_MSC_GDPS_WindU_IsbL-1015_LatLon0.15_PT174H.grib2 2026-05-07 04:41 1.3M
20260507T00Z_MSC_GDPS_WindV_AGL-10m_LatLon0.15_PT174H.grib2 2026-05-07 04:41 1.3M
20260507T00Z_MSC_GDPS_WindV_AGL-120m_LatLon0.15_PT174H.grib2 2026-05-07 04:41 1.0M
20260507T00Z_MSC_GDPS_WindV_AGL-40m_LatLon0.15_PT174H.grib2 2026-05-07 04:41 956K
20260507T00Z_MSC_GDPS_WindV_AGL-80m_LatLon0.15_PT174H.grib2 2026-05-07 04:41 1.0M
20260507T00Z_MSC_GDPS_WindV_IsbL-0001_LatLon0.15_PT174H.grib2 2026-05-07 04:41 725K
20260507T00Z_MSC_GDPS_WindV_IsbL-0005_LatLon0.15_PT174H.grib2 2026-05-07 04:41 791K
20260507T00Z_MSC_GDPS_WindV_IsbL-0010_LatLon0.15_PT174H.grib2 2026-05-07 04:41 633K
20260507T00Z_MSC_GDPS_WindV_IsbL-0020_LatLon0.15_PT174H.grib2 2026-05-07 04:41 852K
20260507T00Z_MSC_GDPS_WindV_IsbL-0030_LatLon0.15_PT174H.grib2 2026-05-07 04:41 856K
20260507T00Z_MSC_GDPS_WindV_IsbL-0050_LatLon0.15_PT174H.grib2 2026-05-07 04:41 972K
20260507T00Z_MSC_GDPS_WindV_IsbL-0100_LatLon0.15_PT174H.grib2 2026-05-07 04:41 1.1M
20260507T00Z_MSC_GDPS_WindV_IsbL-0150_LatLon0.15_PT174H.grib2 2026-05-07 04:41 1.0M
20260507T00Z_MSC_GDPS_WindV_IsbL-0175_LatLon0.15_PT174H.grib2 2026-05-07 04:41 817K
20260507T00Z_MSC_GDPS_WindV_IsbL-0200_LatLon0.15_PT174H.grib2 2026-05-07 04:41 846K
20260507T00Z_MSC_GDPS_WindV_IsbL-0225_LatLon0.15_PT174H.grib2 2026-05-07 04:41 855K
20260507T00Z_MSC_GDPS_WindV_IsbL-0250_LatLon0.15_PT174H.grib2 2026-05-07 04:41 853K
20260507T00Z_MSC_GDPS_WindV_IsbL-0275_LatLon0.15_PT174H.grib2 2026-05-07 04:41 882K
20260507T00Z_MSC_GDPS_WindV_IsbL-0300_LatLon0.15_PT174H.grib2 2026-05-07 04:41 871K
20260507T00Z_MSC_GDPS_WindV_IsbL-0350_LatLon0.15_PT174H.grib2 2026-05-07 04:41 883K
20260507T00Z_MSC_GDPS_WindV_IsbL-0400_LatLon0.15_PT174H.grib2 2026-05-07 04:41 884K
20260507T00Z_MSC_GDPS_WindV_IsbL-0450_LatLon0.15_PT174H.grib2 2026-05-07 04:41 884K
20260507T00Z_MSC_GDPS_WindV_IsbL-0500_LatLon0.15_PT174H.grib2 2026-05-07 04:41 1.1M
20260507T00Z_MSC_GDPS_WindV_IsbL-0550_LatLon0.15_PT174H.grib2 2026-05-07 04:41 1.1M
20260507T00Z_MSC_GDPS_WindV_IsbL-0600_LatLon0.15_PT174H.grib2 2026-05-07 04:41 1.1M
20260507T00Z_MSC_GDPS_WindV_IsbL-0650_LatLon0.15_PT174H.grib2 2026-05-07 04:41 1.2M
20260507T00Z_MSC_GDPS_WindV_IsbL-0700_LatLon0.15_PT174H.grib2 2026-05-07 04:41 1.2M
20260507T00Z_MSC_GDPS_WindV_IsbL-0750_LatLon0.15_PT174H.grib2 2026-05-07 04:41 1.3M
20260507T00Z_MSC_GDPS_WindV_IsbL-0800_LatLon0.15_PT174H.grib2 2026-05-07 04:41 1.3M
20260507T00Z_MSC_GDPS_WindV_IsbL-0850_LatLon0.15_PT174H.grib2 2026-05-07 04:41 1.4M
20260507T00Z_MSC_GDPS_WindV_IsbL-0875_LatLon0.15_PT174H.grib2 2026-05-07 04:41 1.4M
20260507T00Z_MSC_GDPS_WindV_IsbL-0900_LatLon0.15_PT174H.grib2 2026-05-07 04:41 1.4M
20260507T00Z_MSC_GDPS_WindV_IsbL-0925_LatLon0.15_PT174H.grib2 2026-05-07 04:41 1.4M
20260507T00Z_MSC_GDPS_WindV_IsbL-0950_LatLon0.15_PT174H.grib2 2026-05-07 04:41 1.4M
20260507T00Z_MSC_GDPS_WindV_IsbL-0970_LatLon0.15_PT174H.grib2 2026-05-07 04:41 1.4M
20260507T00Z_MSC_GDPS_WindV_IsbL-0985_LatLon0.15_PT174H.grib2 2026-05-07 04:41 1.4M
20260507T00Z_MSC_GDPS_WindV_IsbL-1000_LatLon0.15_PT174H.grib2 2026-05-07 04:41 1.4M
20260507T00Z_MSC_GDPS_WindV_IsbL-1015_LatLon0.15_PT174H.grib2 2026-05-07 04:41 1.3M